Overview Statistics Trail Chart Weather Telemetry Raw packets
 

This is the latest recevied weather packets stored in our database for station/object KB1JL-13. If no packets are shown the sender has not sent any weather packets the latest 10 day(s).

<< 1 2 3 4 5 6 >>
Time Temp. Humidity Pressure Rain* Wind** Luminosity Snow
1788602883 15.56° C 98% 1021.2 hPa 0 mm - 0 W/m² -
1788602580 15.56° C 98% 1021.2 hPa 0 mm - 0 W/m² -
1788602279 15.56° C 98% 1021.2 hPa 0 mm - 0 W/m² -
1788601973 15° C 98% 1021.6 hPa 0 mm - 0 W/m² -
1788601668 15° C 97% 1021.6 hPa 0 mm - 0 W/m² -
1788601364 15.56° C 97% 1020.9 hPa 0 mm - 0 W/m² -
1788601063 15.56° C 97% 1021.2 hPa 0 mm - 0 W/m² -
1788600759 15.56° C 97% 1020.9 hPa 0 mm - 0 W/m² -
1788600454 15.56° C 96% 1021.2 hPa 0 mm - 0 W/m² -
1788600149 15.56° C 96% 1020.9 hPa 0 mm - 0 W/m² -
1788599849 15.56° C 96% 1020.9 hPa 0 mm - 0 W/m² -
1788599543 15.56° C 95% 1020.9 hPa 0 mm - 0 W/m² -
1788599237 16.11° C 95% 1021.2 hPa 0 mm - 0 W/m² -
1788598933 16.11° C 94% 1021.2 hPa 0 mm - 0 W/m² -
1788598632 16.11° C 94% 1021.2 hPa 0 mm - 0 W/m² -
1788598327 16.67° C 93% 1021.2 hPa 0 mm - 0 W/m² -
1788598027 16.67° C 93% 1021.2 hPa 0 mm - 0 W/m² -
1788597727 16.67° C 92% 1021.6 hPa 0 mm - 0 W/m² -
1788597421 16.67° C 91% 1021.2 hPa 0 mm - 0 W/m² -
1788597118 17.22° C 91% 1021.2 hPa 0 mm - 0 W/m² -
1788596814 17.22° C 91% 1021.6 hPa 0 mm - 0 W/m² -
1788596509 16.67° C 91% 1021.2 hPa 0 mm - 0 W/m² -
1788596203 16.67° C 91% 1020.9 hPa 0 mm - 0 W/m² -
1788595898 16.67° C 91% 1021.2 hPa 0 mm - 0 W/m² -
1788595593 17.22° C 91% 1020.9 hPa 0 mm - 0 W/m² -

* Rain latest hour (hover to see other rain measurements)
** Current wind speed in m/s (hover to see current wind gust speed)